Regional Weather Roundup
Issued by NWS

Home | Current Version | Previous Version | Text Only | Print | Product List | Glossary On
Versions: 1 2 3 4 5 6 7 8 9 10 11 12 13 14 15 16 17 18 19 20 21 22 23 24 25 26 27 28 29 30 31 32 33 34 35 36 37 38 39 40 41 42 43 44 45 46 47 48 49 50
000
ASPQ40 PGUM 290412
RWRPQ
WEATHER ROUNDUP FOR THE MARIANAS AND MICRONESIA
NATIONAL WEATHER SERVICE TIYAN GU
200 PM CHST TUE JUL 29 2014

GUZ001>004-290500-
MARIANA ISLANDS-

CITY           SKY/WX    TMP DP  RH WIND       PRES   REMARKS
GUAM AIRPORT   LGT RAIN  81  75  83 W13G23    29.82F
ANDERSEN AFB   DRIZZLE   79  75  89 W17       29.81F
ROTA AIRPORT   CLOUDY    81  77  89 NW13G21   29.83R
TINIAN AP      PTSUNNY   82  81  94 NW10      29.77S HX  95
SAIPAN AP      CLOUDY    84  77  79 N10       29.79F HX  94

$$

PMZ161-290500-
REPUBLIC OF PALAU-

CITY           SKY/WX    TMP DP  RH WIND       PRES   REMARKS
KOROR AP       PTSUNNY   88  79  74 S12G22    29.81F HX 102
KOROR WSO      CLOUDY    86  75  70 S14       29.80F HX  95

$$

PMZ171>174-290500-
FEDERATED STATES OF MICRONESIA-

CITY           SKY/WX    TMP DP  RH WIND       PRES   REMARKS
YAP AIRPORT    PTSUNNY   86  77  74 SW9       29.79F HX  97
CHUUK AP       CLOUDY    86  79  79 NW8       29.81F HX  99
POHNPEI AP     MOSUNNY   90  77  66 N6        29.82F HX 102
POHNPEI WSO    CLOUDY    90  79  70 N6        29.85  HX 105
KOSRAE AP      NOT AVBL

$$

PMZ181-290500-
REPUBLIC OF THE MARSHALL ISLANDS-

CITY           SKY/WX    TMP DP  RH WIND       PRES   REMARKS
KWAJALEIN AP   LGT RAIN  81  73  78 E13       29.83S
MAJURO AP      NOT AVBL
MAJURO WSO     NOT AVBL

$$



USA.gov is the U.S. government's official web portal to all federal, state and local government web resources and services.